Preview of NWS' New Version of Forecast
This preview is not operational and should not be used for support decisions.

Regional Weather Roundup (RWR)

Issued by National Weather Service (NWS)

                            
000
ASUS44 KMEG 190400
RWRTN 
TENNESSEE HOURLY STATE WEATHER ROUNDUP
NATIONAL WEATHER SERVICE MEMPHIS TN
1100 PM CDT THU APR 18 2019

TNZ002-004-019-021-049-052-054-088>092-190500-
WEST TENNESSEE
  
CITY           SKY/WX    TMP DP  RH WIND       PRES   REMARKS
MEMPHIS INTL   LGT RAIN  50  49  96 N23G32    29.64R FOG              
NWS MEMPHIS      N/A     50 N/A N/A MISG        N/A                   
JACKSON        CLOUDY    59  58  96 W3        29.58F                  
DYERSBURG      LGT RAIN  50  49  96 N14G28    29.64R                  
$$

TNZ008-025-027-028-033-062-065-066-190500-
NORTH MIDDLE TENNESSEE
  
CITY           SKY/WX    TMP DP  RH WIND       PRES   REMARKS
NASHVILLE      LGT RAIN  60  56  86 NE5       29.58F                  
CLARKSVILLE    LGT RAIN  60  57  89 E5        29.57F FOG              
SMYRNA         LGT RAIN  60  59  96 SE3       29.61F                  
CROSSVILLE     LGT RAIN  60  58  92 VRB6      29.70F FOG              
$$

TNZ061-075-076-078-094-096-097-190500-
SOUTH MIDDLE TENNESSEE
  
CITY           SKY/WX    TMP DP  RH WIND       PRES   REMARKS
$$

TNZ017-018-042-046-047-190500-
NORTHEAST TENNESSEE
  
CITY           SKY/WX    TMP DP  RH WIND       PRES   REMARKS
TRI CITIES     MOCLDY    69  52  54 SE8       29.75F                  
$$

TNZ012-013-036-069-073-074-190500-
CENTRAL EAST TENNESSEE
  
CITY           SKY/WX    TMP DP  RH WIND       PRES   REMARKS
KNOXVILLE      CLOUDY    73  51  46 S15G22    29.66F                  
OAK RIDGE      CLOUDY    73  52  47 S6        29.67F                  
$$

TNZ083-085-099-190500-
SOUTHEAST TENNESSEE
  
CITY           SKY/WX    TMP DP  RH WIND       PRES   REMARKS
CHATTANOOGA    RAIN      66  62  87 S7        29.69R FOG              
$$

SKY/WX REPORTED AS FAIR MEANS FEW OR NO CLOUDS BELOW
12 THOUSAND FEET.